Change the Weather History Date:

Sunday, July 13, 2014

  Actual Average (KBFD) Record (KBFD)
Temperature  
Mean Temperature 68 °F 66 °F  
Max Temperature 73 °F 78 °F 86 °F (1979)
Min Temperature 62 °F 53 °F 38 °F (1980)
Degree Days  
Heating Degree Days 0 0  
Month to date heating degree days 1  
Since 1 June heating degree days 146  
Since 1 July heating degree days 1  
Cooling Degree Days 2 3  
Month to date cooling degree days 33  
Year to date cooling degree days 83  
Since 1 June cooling degree days 73  
Growing Degree Days 18 (Base 50)    
Moisture  
Dew Point 66 °F    
Average Humidity 96    
Maximum Humidity 100    
Minimum Humidity 88    
Precipitation  
Precipitation 0.00 in 0.13 in 1.33 in (1964)
Month to date precipitation 1.76  
Year to date precipitation 23.41  
Sea Level Pressure  
Sea Level Pressure 29.94 in    
Wind  
Wind Speed 7 mph (SW)    
Max Wind Speed 14 mph    
Max Gust Speed 24 mph    
Visibility 8 miles    
Events Rain , Thunderstorm    
T = Trace of Precipitation, MM = Missing Value Source: NWS Daily Summary

Daily Weather History Graph

Daily Weather History Graph

Search for Another Location

Airport or City:

Trip Planner

Search our weather history database for the weather conditions in past years. The results will help you decide how hot, cold, wet, or windy it might be!

Date:

Astronomy

Jul. 13, 2014 Rise Set
Actual Time 5:48 AM EDT 8:49 PM EDT
Civil Twilight 5:15 AM EDT 9:22 PM EDT
Nautical Twilight 4:32 AM EDT 10:05 PM EDT
Astronomical Twilight 3:41 AM EDT 10:55 PM EDT
Moon 9:32 PM EDT (7/13) 7:19 AM EDT (7/13)
Length of Visible Light 16h 07m
Length of Day
15h 00m
Full, 98% of the Moon is Illuminated
Jul 13
Full
Jul 18
Last Quarter
Jul 26
New
Aug 3
First Quarter
Aug 10
Full

Hourly Weather History & Observations

Time (EDT) Temp. Dew Point Humidity Pressure Visibility Wind Dir Wind Speed Gust Speed Precip Events Conditions
12:15 AM - - N/A% - - North - - N/A   Unknown
12:35 AM - - N/A% - - North - - N/A   Unknown
12:55 AM - - N/A% - - North - - N/A   Unknown
1:15 AM - - N/A% - - North - - N/A   Unknown
1:35 AM - - N/A% - - North - - N/A   Unknown
1:55 AM - - N/A% - - North - - N/A   Unknown
2:15 AM - - N/A% - - North - - N/A   Unknown
2:35 AM - - N/A% - - North - - N/A   Unknown
2:55 AM - - N/A% - - North - - N/A   Unknown
3:15 AM - - N/A% - - North - - N/A   Unknown
3:35 AM - - N/A% - - North - - N/A   Unknown
3:55 AM - - N/A% - - North - - N/A   Unknown
4:15 AM - - N/A% - - North - - N/A   Unknown
4:35 AM - - N/A% - - North - - N/A   Unknown
4:55 AM - - N/A% - - North - - N/A   Unknown
5:15 AM - - N/A% - - North - - N/A   Unknown
5:35 AM - - N/A% - - North - - N/A   Unknown
5:55 AM - - N/A% - - North - - N/A   Unknown
6:15 AM - - N/A% - - North - - N/A   Unknown
6:35 AM - - N/A% - - North - - N/A   Unknown
6:55 AM - - N/A% - - North - - N/A   Unknown
7:15 AM - - N/A% 29.98 in - SW 6.9 mph - N/A   Unknown
7:35 AM 64.4 °F 64.4 °F 100% 29.97 in 7.0 mi SSW 6.9 mph - N/A Rain Light Rain
7:55 AM 66.2 °F 64.4 °F 94% 29.97 in 10.0 mi SW 9.2 mph - N/A   Mostly Cloudy
8:15 AM 64.4 °F 64.4 °F 100% 29.99 in 7.0 mi SW 8.1 mph 19.6 mph N/A Rain Light Rain
8:35 AM 64.4 °F 64.4 °F 100% 29.97 in 7.0 mi SSW 11.5 mph - N/A Rain Rain
8:55 AM 64.4 °F 64.4 °F 100% 29.96 in 5.0 mi South 9.2 mph - N/A Rain , Thunderstorm Light Thunderstorms and Rain
9:15 AM 64.4 °F 64.4 °F 100% 29.96 in 5.0 mi SSW 8.1 mph - N/A Thunderstorm Scattered Clouds
9:35 AM 62.6 °F 62.6 °F 100% 29.99 in 2.0 mi WSW 5.8 mph - N/A Rain , Thunderstorm Heavy Thunderstorms and Rain
9:55 AM 64.4 °F 64.4 °F 100% 29.97 in 3.0 mi SW 8.1 mph - N/A Rain Rain
10:15 AM 64.4 °F 64.4 °F 100% 29.99 in 1.8 mi SSW 8.1 mph - N/A Rain , Thunderstorm Heavy Thunderstorms and Rain
10:35 AM 64.4 °F 64.4 °F 100% 29.95 in 3.0 mi SSW 9.2 mph - N/A Rain Light Rain
10:55 AM 64.4 °F 64.4 °F 100% 29.96 in 1.0 mi SSW 6.9 mph - N/A Rain Light Rain
11:15 AM 64.4 °F 64.4 °F 100% 29.94 in 5.0 mi SW 8.1 mph - N/A Thunderstorm Overcast
11:35 AM 66.2 °F 66.2 °F 100% 29.95 in 7.0 mi SW 11.5 mph 19.6 mph N/A   Mostly Cloudy
11:55 AM 66.2 °F 66.2 °F 100% - - North - - N/A   Unknown
12:15 PM 66.2 °F 66.2 °F 100% 29.93 in 5.0 mi SSW 11.5 mph 19.6 mph N/A Rain Light Rain
12:35 PM 66.2 °F 66.2 °F 100% - - North - - N/A   Unknown
12:55 PM 69.8 °F 69.8 °F 100% 29.92 in 7.0 mi SSW 11.5 mph 18.4 mph N/A   Mostly Cloudy
1:15 PM 69.8 °F 69.8 °F 100% 29.90 in 7.0 mi SSW 10.4 mph 23.0 mph N/A   Mostly Cloudy
1:35 PM 69.8 °F 69.8 °F 100% - - North - - N/A   Unknown
1:55 PM 71.6 °F 69.8 °F 94% - - North - - N/A   Unknown
2:15 PM 71.6 °F 69.8 °F 94% - - North - - N/A   Unknown
2:35 PM - - N/A% - - North - - N/A   Unknown
2:55 PM - - N/A% - - North - - N/A   Unknown
3:15 PM 73.4 °F 69.8 °F 88% - 10.0 mi North - - N/A   Unknown
3:35 PM 68.0 °F 68.0 °F 100% 29.90 in 0.8 mi WSW 13.8 mph 24.2 mph N/A Rain , Thunderstorm Heavy Thunderstorms and Rain
3:55 PM 68.0 °F 68.0 °F 100% - 10.0 mi WSW 4.6 mph - N/A   Overcast
4:15 PM 68.0 °F 68.0 °F 100% 29.90 in 10.0 mi West 3.5 mph - N/A   Overcast
4:35 PM 69.8 °F 69.8 °F 100% 29.89 in 10.0 mi WNW 6.9 mph - N/A   Overcast
4:55 PM 71.6 °F 69.8 °F 94% 29.89 in 10.0 mi West 8.1 mph - N/A   Overcast
5:15 PM 69.8 °F 69.8 °F 100% 29.91 in 10.0 mi WNW 4.6 mph - N/A   Overcast
5:35 PM 69.8 °F 69.8 °F 100% - - North - - N/A   Unknown
5:55 PM - - N/A% - - North - - N/A   Unknown
6:15 PM 71.6 °F 68.0 °F 88% 29.91 in - WNW 6.9 mph - N/A   Unknown
6:35 PM 71.6 °F 68.0 °F 88% - 10.0 mi North - - N/A   Unknown
6:55 PM 71.6 °F 68.0 °F 88% 29.92 in 10.0 mi West 3.5 mph - N/A   Scattered Clouds
7:15 PM 71.6 °F 68.0 °F 88% 29.93 in 10.0 mi WSW 3.5 mph - N/A   Scattered Clouds
7:35 PM 71.6 °F 68.0 °F 88% 29.93 in 10.0 mi West 3.5 mph - N/A   Scattered Clouds
7:55 PM 69.8 °F 68.0 °F 94% - 10.0 mi West 3.5 mph - N/A   Scattered Clouds
8:15 PM 69.8 °F 66.2 °F 88% 29.94 in 10.0 mi Calm Calm - N/A   Clear
8:35 PM 68.0 °F 66.2 °F 94% - 10.0 mi North - - N/A   Clear
9:15 PM 68.0 °F 64.4 °F 88% 29.94 in 10.0 mi Calm Calm - N/A   Clear
9:35 PM 66.2 °F 64.4 °F 94% 29.95 in 10.0 mi Calm Calm - N/A   Clear
9:55 PM 66.2 °F 62.6 °F 88% 29.95 in 10.0 mi Calm Calm - N/A   Clear
10:15 PM 64.4 °F 62.6 °F 94% 29.96 in 10.0 mi Calm Calm - N/A   Clear
10:35 PM 64.4 °F 64.4 °F 100% 29.96 in 10.0 mi WSW 3.5 mph - N/A   Clear
10:55 PM 64.4 °F 64.4 °F 100% 29.96 in 10.0 mi Calm Calm - N/A   Clear
11:15 PM 64.4 °F 64.4 °F 100% 29.96 in 10.0 mi SSW 3.5 mph - N/A   Clear
11:35 PM 64.4 °F 62.6 °F 94% 29.96 in 10.0 mi Calm Calm - N/A   Clear
11:55 PM 64.4 °F 64.4 °F 100% 29.96 in 10.0 mi Calm Calm - N/A   Clear